Flag for Kosovo Weather past 2 weeks in Uroševac, Kosovo

Now
90 °F

Passing clouds.


Feels Like: 88 °F
Forecast: 58 / 90 °F
Wind: 7 mph from Northwest

Location: Skopje-Petrovec

Current Time: Jul 6, 2015 at 1:36:21 PM

Latest Report: Jul 6, 2015 at 1:00 PM


Visibility: N/A

Pressure: 30.07 "Hg (28.17 "Hg at 582m altitude)

Humidity: 31%

Dew point: 55 °F

Location of UroševacLocation

Historic Weather in Uroševac — Graph

°F

Uroševac temperature yesterday

Maximum temperature yesterday: 91 °F (at 4:00 PM)
Minimum temperature yesterday: 59 °F (at 3:00 AM)
Average temperature yesterday: 76 °F

Past Weeks' High & Low Weather Summary

 TemperatureHumidityPressure
High91 °F (Jul 5, 4:00 PM)94% (Jun 22, 2:30 AM)30.27 "Hg (Jun 22, 2:30 AM)
Low48 °F (Jun 23, 5:00 AM)24% (Jul 3, 3:00 PM)29.89 "Hg (Jun 23, 5:30 PM)
Average69 °F59%30.08 "Hg
* Reported Jun 21 12:00 Noon — Jul 6 12:30 PM, Uroševac, Weather by CustomWeather, © 2015

Note: Actual official high and low records may vary slightly from our data, if they occured in-between our weather recording intervals... More about our weather records

Advertising

Uroševac weather history for previous 24 hours

 ConditionsComfort  
Time TempWeatherWind HumidityBarometerVisibility
12:30 PM
Mon, Jul 6
88 °FPassing clouds.5 mph33%30.07 "HgN/A
12:00 PM88 °FSunny.3 mph33%30.09 "Hg10 mi
11:30 AM86 °FSunny.2 mph35%30.09 "Hg10 mi
11:00 AM84 °FSunny.2 mph40%30.09 "Hg10 mi
10:30 AM82 °FSunny.2 mph45%30.12 "Hg10 mi
10:00 AM79 °FSunny.3 mph51%30.12 "Hg10 mi
9:30 AM77 °FSunny.1 mph54%30.12 "Hg10 mi
9:00 AM75 °FSunny.1 mph54%30.12 "Hg10 mi
8:30 AM73 °FSunny.1 mph57%30.12 "Hg10 mi
8:00 AM72 °FSunny.1 mph61%30.12 "Hg10 mi
7:30 AM70 °FSunny.No wind64%30.12 "Hg10 mi
7:00 AM64 °FSunny.No wind78%30.12 "Hg10 mi
6:00 AM61 °FClear.3 mph83%30.12 "Hg10 mi
5:00 AM59 °FClear.No wind88%30.12 "Hg10 mi
4:30 AM61 °FClear.No wind83%30.09 "Hg10 mi
4:00 AM61 °FClear.No wind83%30.09 "Hg10 mi
3:30 AM63 °FClear.2 mph77%30.09 "Hg10 mi
3:00 AM63 °FClear.2 mph77%30.09 "Hg10 mi
2:00 AM63 °FClear.2 mph77%30.09 "Hg10 mi
1:30 AM64 °FClear.No wind73%30.09 "Hg10 mi
1:00 AM66 °FClear.No wind68%30.12 "Hg10 mi
12:30 AM66 °FClear.No wind68%30.12 "Hg10 mi
12:00 AM66 °FClear.No wind68%30.12 "Hg10 mi
11:30 PM
Sun, Jul 5
68 °FClear.No wind64%30.12 "Hg10 mi
11:00 PM70 °FClear.No wind60%30.12 "Hg10 mi
10:30 PM72 °FClear.No wind57%30.09 "Hg10 mi
9:30 PM75 °FClear.5 mph47%30.07 "Hg10 mi
9:00 PM77 °FSunny.5 mph42%30.07 "Hg10 mi
8:30 PM77 °FSunny.7 mph42%30.07 "Hg10 mi
8:00 PM82 °FSunny.7 mph35%30.07 "Hg10 mi
7:30 PM86 °FSunny.7 mph31%30.07 "Hg10 mi
7:00 PM86 °FPassing clouds.9 mph31%30.04 "HgN/A
6:30 PM88 °FPassing clouds.10 mph31%30.04 "HgN/A
6:00 PM88 °FPassing clouds.10 mph29%30.04 "HgN/A
5:30 PM90 °FPassing clouds.12 mph27%30.04 "HgN/A
5:00 PM90 °FPassing clouds.14 mph27%30.04 "HgN/A
4:30 PM90 °FPassing clouds.9 mph27%30.04 "HgN/A
4:00 PM91 °FPassing clouds.6 mph26%30.04 "HgN/A
3:30 PM90 °FPassing clouds.5 mph27%30.07 "HgN/A
3:00 PM90 °FPassing clouds.5 mph27%30.07 "HgN/A
2:30 PM90 °FPassing clouds.6 mph27%30.07 "HgN/A
2:00 PM90 °FPassing clouds.6 mph27%30.07 "HgN/A
1:30 PM88 °FPassing clouds.3 mph31%30.09 "HgN/A
1:00 PM86 °FPassing clouds.2 mph33%30.09 "HgN/A
Weather by CustomWeather, © 2015

See weather overviewHow to use our weather pages